Home > Weather > Eisenstadt > Past weeks

Flag for Austria Weather for the Past 2 Weeks in Eisenstadt, Burgenland, Austria

Now
63 °F

Mild.


Feels Like: 63 °F
Forecast: 46 / 69 °F
Wind: 6 mph from Northwest

Location: Eisenstadt

Current Time: May 5, 2016 at 6:44:54 PM

Latest Report: May 5, 2016 at 6:00 PM


Visibility: N/A

Pressure: 30.17 "Hg

Humidity: 62%

Dew Point: 49 °F

Location of EisenstadtLocation

Historic Weather in Eisenstadt — Graph

°F

Eisenstadt Temperature Yesterday

Maximum temperature yesterday: 54 °F (at 3:00 PM)
Minimum temperature yesterday: 48 °F (at 12:00 PM)
Average temperature yesterday: 50 °F

High & Low Weather Summary for the Past Weeks

 TemperatureHumidityPressure
High69 °F (Apr 22, 3:00 PM)93% (May 2, 12:00 AM)30.39 "Hg (May 2, 12:00 AM)
Low33 °F (Apr 26, 4:00 AM)28% (Apr 20, 5:00 PM)29.59 "Hg (Apr 24, 12:00 AM)
Average52 °F63%29.98 "Hg
* Reported Apr 20 5:00 PM — May 5 5:00 PM, Eisenstadt, Weather by CustomWeather, © 2016

Note: Actual official high and low records may vary slightly from our data, if they occured in-between our weather recording intervals... More about our weather records

Advertising

Eisenstadt Weather History for the Previous 24 Hours

Scroll right to see more
 ConditionsComfort  
Time TempWeatherWind HumidityBarometerVisibility
5:00 PM
Thu, May 5
62 °FPassing clouds.7 mph61%30.18 "Hg19 mi
4:00 PM61 °FCool.7 mph63%30.19 "HgN/A
3:00 PM60 °FCool.7 mph62%30.21 "HgN/A
2:00 PM58 °FPassing clouds.5 mph63%30.23 "Hg6 mi
1:00 PM57 °FCool.6 mph68%30.24 "HgN/A
12:00 PM56 °FCool.6 mph70%30.25 "HgN/A
11:00 AM53 °FOvercast.7 mph76%30.25 "Hg6 mi
10:00 AM51 °FCool.7 mph78%30.26 "HgN/A
9:00 AM50 °FCool.6 mph77%30.27 "HgN/A
8:00 AM49 °FOvercast.8 mph79%30.26 "Hg6 mi
7:00 AM48 °FOvercast.8 mph80%30.24 "Hg6 mi
6:00 AM48 °FOvercast.9 mph81%30.23 "Hg6 mi
5:00 AM48 °FOvercast.9 mph79%30.24 "Hg6 mi
4:00 AM48 °FOvercast.9 mph79%30.22 "Hg6 mi
3:00 AM48 °FCool.10 mph79%30.23 "HgN/A
2:00 AM47 °FLight rain. Overcast.10 mph82%30.23 "Hg6 mi
1:00 AM48 °FCool.10 mph79%30.24 "HgN/A
12:00 AM49 °FCool.12 mph76%30.24 "HgN/A
11:00 PM
Wed, May 4
49 °FCool.12 mph75%30.23 "HgN/A
10:00 PM49 °FCool.12 mph75%30.22 "HgN/A
9:00 PM49 °FCool.10 mph76%30.19 "HgN/A
8:00 PM50 °FPartly sunny.12 mph74%30.19 "Hg16 mi
7:00 PM50 °FOvercast.12 mph71%30.19 "Hg19 mi
6:00 PM51 °FCool.9 mph70%30.18 "HgN/A
Weather by CustomWeather, © 2016

See weather overviewHow to use our weather pages